www.pogodaiklimat.ru

Погода и климат >> Архив погоды >> Дания >> Мыс Nakkehoved


ПОГОДА на Мысе Nakkehoved

  • Прогноз погоды на Мысе Nakkehoved
  • Монитор погоды на Мысе Nakkehoved

АРХИВ ПОГОДЫ на Мысе Nakkehoved

Время (UTC), дата Ветер
(напр.,м/с)
 
Видим.   Явления Облачность Т
(С)
Тd
(С)
f
(%)
Тe
(С)
Тes
(С)
Комфортность P
(гПа)
Po
(гПа)
Тmin
(С)
Tmax
(С)
R
(мм)
R24
(мм)
S
(см)
07 12.06 В 4 н/о н/о +16.1 +15.1 94 +15 +15 1012.0 1006.9
08 12.06 В 3 н/о н/о +17.8 +15.4 86 +18 +18 1011.7 1006.6
09 12.06 В 3 н/о н/о +18.7 +15.6 82 +20 +20 1011.8 1006.8
10 12.06 В 3 н/о н/о +19.4 +15.9 80 +22 +22 комфорт 1011.6 1006.5
11 12.06 ЮВ 3 н/о н/о +21.0 +17.6 81 +25 +25 комфорт 1011.6 1006.5
12 12.06 ЮВ 2 н/о н/о +20.2 +17.3 83 +24 +24 комфорт 1011.7 1006.7
13 12.06 В 2 н/о н/о +19.8 +17.0 84 +23 +23 комфорт 1011.0 1006.0
14 12.06 В 3 н/о н/о +19.5 +16.6 83 +22 +22 комфорт 1010.2 1005.1
15 12.06 В 5 н/о н/о +19.2 +16.6 85 +21 +21 комфорт 1009.5 1004.5
16 12.06 В 6 н/о н/о +19.0 +16.4 85 +20 +20 1008.7 1003.6
17 12.06 В 6 н/о н/о +19.0 +16.4 85 +20 +20 1008.0 1003.0
18 12.06 В 4 н/о н/о +18.8 +16.4 86 +20 +20 1008.3 1003.3 +15.3 +21.2
19 12.06 В 3 н/о н/о +18.1 +16.1 88 +18 +18 1008.9 1003.9
20 12.06 В 4 н/о н/о +17.6 +16.1 91 +17 +17 1007.8 1002.7
21 12.06 Ю 4-11
{11}
н/о н/о +17.9 +16.4 91 +18 +18 1009.8 1004.7
22 12.06 Ю 1 н/о н/о +16.4 +16.0 97 +17 +17 1008.4 1003.3
23 12.06 Ю 2 н/о н/о +16.3 +16.0 98 +16 +16 1009.1 1004.0
00 13.06 ЮЗ 2 н/о н/о +16.0 +15.8 99 +16 +16 1008.4 1003.3
01 13.06 Ю 3 н/о н/о +15.9 +15.7 99 +16 +16 1009.5 1004.4
02 13.06 Ю 2 н/о н/о +15.7 +15.5 99 +16 +16 1009.8 1004.7
03 13.06 Ю 2 н/о н/о +15.5 +15.3 99 +16 +16 1010.3 1005.2
04 13.06 ЮЗ 2 н/о н/о +15.4 +15.2 99 +15 +15 1010.5 1005.4
05 13.06 ЮЗ 2 н/о н/о +14.8 +14.3 97 +15 +15 1011.4 1006.3
06 13.06 ЮЗ 2 н/о н/о +14.9 +14.0 94 +15 +15 1011.9 1006.8 +14.4 +19.0
07 13.06 ЮЗ 2 н/о н/о +16.2 +13.6 85 +16 +16 1012.1 1007.0
08 13.06 ЮЗ 2 н/о н/о +17.2 +12.2 72 +18 +18 1012.7 1007.6
09 13.06 З 2 н/о н/о +18.3 +11.3 64 +19 +19 1013.6 1008.5
10 13.06 Ю 2 н/о н/о +18.8 +12.4 66 +20 +20 1013.9 1008.8
11 13.06 Ю 2 н/о н/о +19.6 +10.3 55 +21 +21 комфорт 1014.1 1009.0
12 13.06 В 3 н/о н/о +17.8 +13.9 78 +18 +18 1014.1 1009.0
13 13.06 Ю 3 н/о н/о +19.4 +12.1 63 +21 +21 комфорт 1013.9 1008.9
14 13.06 ЮВ 3 н/о н/о +20.5 +12.9 62 +23 +23 комфорт 1014.0 1009.0
15 13.06 Ю 3 н/о н/о +19.9 +12.8 64 +22 +22 комфорт 1014.0 1008.9
16 13.06 Ю 3 н/о н/о +20.2 +12.7 62 +23 +23 комфорт 1014.2 1009.2
17 13.06 Ю 3 н/о н/о +19.8 +13.0 65 +22 +22 комфорт 1014.6 1009.5
18 13.06 Ю 3
{8}
н/о н/о +19.2 +11.8 62 +21 +21 комфорт 1014.6 1009.5 +14.8 +20.9
19 13.06 Ю 2 н/о н/о +17.8 +10.9 64 +18 +18 1014.9 1009.8
20 13.06 Ю 3 н/о н/о +17.5 +11.0 66 +18 +18 1015.7 1010.6
21 13.06 Ю 2 н/о н/о +14.7 +12.9 89 +14 +14 1016.0 1010.8
22 13.06 ЮВ 2 н/о н/о +15.5 +12.6 83 +15 +15 1015.7 1010.6
23 13.06 Ю 1 н/о н/о +13.7 +12.7 94 +15 +15 1017.4 1012.2
00 14.06 В 3 н/о н/о +14.0 +12.9 93 +13 +13 1016.8 1011.6
01 14.06 ЮВ 3 н/о н/о +13.7 +12.9 95 +13 +13 1016.2 1011.0
02 14.06 Ю 4 н/о н/о +13.9 +13.1 95 +12 +12 1016.8 1011.6
03 14.06 Ю 2 н/о н/о +13.5 +12.8 96 +13 +13 1017.5 1012.3
04 14.06 Ю 1 н/о н/о +13.3 +12.8 97 +13 +13 1017.5 1012.3
05 14.06 Ю 2 н/о н/о +14.3 +13.4 94 +14 +14 1017.6 1012.4
06 14.06 Ю 3 н/о н/о +16.2 +13.8 86 +16 +16 1017.8 1012.6 +12.9 +19.2
07 14.06 Ю 4 н/о н/о +17.5 +13.4 77 +17 +17 1018.2 1013.1
08 14.06 Ю 4 н/о н/о +19.1 +13.3 69 +20 +20 1018.6 1013.5
09 14.06 Ю 3 н/о н/о +20.9 +13.5 63 +24 +24 комфорт 1018.7 1013.6
10 14.06 Ю 3 н/о н/о +22.5 +13.2 56 +25 +25 комфорт 1019.1 1014.0
11 14.06 Ю 3 н/о н/о +23.2 +13.2 53 +26 +26 жарко 1019.0 1014.0
12 14.06 Ю 3 н/о н/о +23.4 +14.1 56 +27 +27 душно 1019.0 1014.0
13 14.06 Ю 3 н/о н/о +24.3 +11.4 44 +26 +26 жарко 1019.0 1014.0
14 14.06 Ю 3 н/о н/о +24.0 +12.1 47 +26 +26 жарко 1018.9 1013.8
15 14.06 Ю 3 н/о н/о +22.4 +9.3 43 +24 +24 комфорт 1018.5 1013.4
16 14.06 Ю 3 н/о н/о +21.8 +12.3 55 +24 +24 комфорт 1018.0 1012.9
17 14.06 Ю 3 н/о н/о +20.8 +13.0 61 +24 +24 комфорт 1018.1 1013.0
18 14.06 Ю 3 н/о н/о +20.1 +11.9 59 +22 +22 комфорт 1018.8 1013.7 +16.0 +24.7
19 14.06 З 1 н/о н/о +19.5 +12.6 64 +22 +22 комфорт 1019.6 1014.5
20 14.06 Ю 2 н/о н/о +15.9 +14.8 93 +16 +16 1019.6 1014.5
21 14.06 Ю 3 н/о н/о +15.9 +13.3 85 +15 +15 1019.6 1014.4
22 14.06 ЮВ 2 н/о н/о +15.4 +11.5 78 +16 +16 1018.8 1013.6
23 14.06 ЮВ 3 н/о н/о +15.6 +13.1 85 +15 +15 1018.0 1012.9
00 15.06 ЮВ 3 н/о н/о +16.1 +13.1 82 +16 +16 1017.8 1012.6
01 15.06 ЮВ 3 н/о н/о +15.8 +11.2 74 +15 +15 1017.2 1012.0
02 15.06 ЮВ 3 н/о н/о +16.3 +10.0 66 +16 +16 1016.7 1011.6
03 15.06 ЮВ 3 н/о н/о +16.6 +10.7 68 +16 +16 1016.2 1011.0
04 15.06 Ю 4 н/о н/о +17.6 +11.8 69 +17 +17 1015.5 1010.4
05 15.06 ЮВ 3 н/о н/о +18.6 +13.3 71 +20 +20 1015.5 1010.4
06 15.06 ЮВ 3 н/о н/о +20.0 +14.6 71 +22 +22 комфорт 1014.8 1009.8 +15.3 +20.7
07 15.06 ЮВ 3 н/о н/о +21.1 +15.5 70 +24 +24 комфорт 1015.2 1010.1
08 15.06 ЮВ 4 н/о н/о +21.8 +16.1 70 +26 +26 душно 1015.0 1010.0
09 15.06 ЮВ 4 н/о н/о +21.7 +12.0 54 +24 +24 комфорт 1014.7 1009.6
10 15.06 ЮВ 4 н/о н/о +21.9 +13.4 58 +25 +25 комфорт 1014.6 1009.6
11 15.06 Ю 3 н/о н/о +20.7 +12.1 58 +23 +23 комфорт 1015.1 1010.0
12 15.06 ЮВ 4 н/о н/о +17.3 +12.6 74 +17 +17 1015.4 1010.3
13 15.06 ЮВ 4 н/о н/о +15.8 +14.2 90 +15 +15 1014.4 1009.2
14 15.06 ЮВ 5 н/о н/о +15.3 +13.8 91 +14 +14 1012.8 1007.6
15 15.06 В 3
{14}
н/о н/о +17.5 +12.8 74 +17 +17 1012.2 1007.1
16 15.06 ЮВ 3 н/о н/о +17.6 +12.4 72 +18 +18 1011.9 1006.8
17 15.06 ЮВ 3 н/о н/о +18.0 +13.0 73 +18 +18 1011.8 1006.7
18 15.06 ЮВ 3
{14}
н/о н/о +18.3 +14.3 77 +19 +19 1011.7 1006.6 +15.2 +22.4
19 15.06 ЮВ 4 н/о н/о +18.2 +13.0 72 +18 +18 1011.8 1006.7
20 15.06 ЮВ 3 н/о н/о +17.3 +13.2 77 +17 +17 1012.4 1007.3
21 15.06 ЮВ 1 н/о н/о +17.0 +13.4 79 +18 +18 1013.0 1007.9
22 15.06 В 1 н/о н/о +16.7 +13.4 81 +18 +18 1013.1 1008.0
23 15.06 ЮВ 1 н/о н/о +16.5 +13.7 84 +17 +17 1013.5 1008.4
00 16.06 Ю 1 н/о н/о +16.3 +14.0 86 +18 +18 1013.3 1008.2
01 16.06 Ю 1 н/о н/о +15.6 +14.1 91 +16 +16 1013.5 1008.3
02 16.06 Ю 1 н/о н/о +15.4 +14.6 95 +17 +17 1013.2 1008.1
03 16.06 ЮЗ 1 н/о н/о +15.2 +14.6 96 +16 +16 1013.6 1008.4
04 16.06 З 2 н/о н/о +15.1 +14.6 97 +15 +15 1014.0 1008.8
05 16.06 З 2 н/о н/о +14.9 +14.2 96 +14 +14 1014.3 1009.2
06 16.06 З 3-8
{8}
н/о н/о +14.7 +13.6 93 +14 +14 1015.2 1010.0 +14.6 +18.4
07 16.06 З 2 н/о н/о +14.7 +13.2 91 +14 +14 1016.0 1010.9
08 16.06 З 2 н/о н/о +15.1 +12.8 86 +15 +15 1016.4 1011.2
09 16.06 З 3
{9}
н/о н/о +16.8 +12.9 78 +17 +17 1016.9 1011.8
10 16.06 З 3 н/о н/о +16.7 +12.7 77 +16 +16 1017.7 1012.6
11 16.06 З 4 н/о н/о +18.4 +12.5 68 +19 +19 1018.2 1013.1
12 16.06 З 3 н/о н/о +19.5 +11.9 61 +21 +21 комфорт 1018.5 1013.4
13 16.06 З 3 н/о н/о +19.5 +11.8 61 +21 +21 комфорт 1018.9 1013.8
14 16.06 З 3 н/о н/о +19.4 +11.4 60 +21 +21 комфорт 1019.3 1014.2
15 16.06 З 3
{8}
н/о н/о +19.4 +10.9 58 +21 +21 комфорт 1019.0 1013.9
16 16.06 З 2 н/о н/о +18.4 +12.4 68 +19 +19 1019.2 1014.1
17 16.06 З 2 н/о н/о +18.0 +12.6 71 +19 +19 1019.4 1014.3
18 16.06 ЮЗ 2
{8}
н/о н/о +17.9 +12.5 71 +19 +19 1019.3 1014.1 +14.6 +19.8
19 16.06 ЮЗ 2 н/о н/о +17.7 +12.6 72 +18 +18 1019.3 1014.1
20 16.06 ЮЗ 2 н/о н/о +16.1 +12.2 78 +16 +16 1019.3 1014.2
21 16.06 ЮЗ 2 н/о н/о +14.5 +12.0 85 +14 +14 1019.7 1014.5
22 16.06 ЮЗ 2 н/о н/о +13.8 +11.5 86 +14 +14 1020.0 1014.8
23 16.06 Ю 2 н/о н/о +13.3 +11.9 91 +12 +12 1020.0 1014.8
00 17.06 Ю 2 н/о н/о +13.3 +12.2 93 +12 +12 1020.2 1015.0
02 17.06 ЮЗ 2 н/о н/о +13.1 +12.1 94 +12 +12 1020.8 1015.6
03 17.06 ЮЗ 2 н/о н/о +12.8 +11.9 94 +12 +12 1020.8 1015.5
04 17.06 ЮЗ 2 н/о н/о +12.7 +11.8 94 +12 +12 1020.9 1015.7
05 17.06 З 1 н/о н/о +14.7 +12.8 88 +15 +15 1020.9 1015.7
06 17.06 З 2 н/о н/о +16.4 +12.2 76 +17 +17 1021.3 1016.1 +12.7 +17.9
07 17.06 З 2 н/о н/о +17.3 +12.3 72 +18 +18 1021.7 1016.5
08 17.06 СЗ 2 н/о н/о +18.4 +12.4 68 +19 +19 1021.9 1016.7
09 17.06 СЗ 2 н/о н/о +18.9 +13.9 73 +21 +21 комфорт 1021.8 1016.6
10 17.06 СЗ 2 н/о н/о +19.0 +13.3 70 +21 +21 комфорт 1021.7 1016.6
11 17.06 СЗ 3 н/о н/о +19.3 +13.2 68 +21 +21 комфорт 1021.5 1016.4
12 17.06 СЗ 3 н/о н/о +20.0 +14.0 68 +22 +22 комфорт 1021.4 1016.3
13 17.06 З 2 н/о н/о +20.9 +14.2 66 +24 +24 комфорт 1021.3 1016.2
14 17.06 З 2 н/о н/о +21.4 +13.0 59 +24 +24 комфорт 1021.3 1016.2
15 17.06 З 3 н/о н/о +21.3 +11.6 54 +23 +23 комфорт 1021.1 1016.0
16 17.06 З 2 н/о н/о +21.1 +12.1 56 +23 +23 комфорт 1020.8 1015.7
17 17.06 З 2 н/о н/о +20.7 +11.9 57 +24 +24 комфорт 1020.7 1015.6
18 17.06 З 2 н/о н/о +20.1 +11.7 58 +23 +23 комфорт 1020.7 1015.6 +16.4 +21.6
19 17.06 ЮЗ 1 н/о н/о +19.0 +11.9 63 +21 +21 комфорт 1020.6 1015.5
20 17.06 Ю 2 н/о н/о +17.2 +12.4 73 +18 +18 1020.8 1015.6
21 17.06 Ю 2 н/о н/о +17.3 +11.7 70 +18 +18 1020.5 1015.4
22 17.06 Ю 2 н/о н/о +16.5 +11.4 72 +17 +17 1020.5 1015.3
23 17.06 Ю 2 н/о н/о +16.0 +12.5 80 +16 +16 1020.3 1015.1
00 18.06 Ю 3 н/о н/о +15.9 +13.0 83 +16 +16 1020.2 1015.1
01 18.06 Ю 3 н/о н/о +15.0 +13.4 90 +14 +14 1020.0 1014.8
02 18.06 Ю 3 н/о н/о +15.2 +13.7 91 +14 +14 1019.7 1014.6
03 18.06 Ю 3 н/о н/о +14.7 +13.0 90 +14 +14 1019.5 1014.3
04 18.06 Ю 4 н/о н/о +15.7 +13.1 85 +15 +15 1019.0 1013.8
05 18.06 Ю 4 н/о н/о +16.7 +13.7 82 +16 +16 1018.8 1013.6
06 18.06 Ю 4 н/о н/о +18.5 +14.1 76 +19 +19 1018.6 1013.4 +14.6 +20.1
07 18.06 Ю 4 н/о н/о +19.5 +14.0 71 +21 +21 комфорт 1018.5 1013.4
08 18.06 Ю 4 н/о н/о +20.4 +13.5 65 +23 +23 комфорт 1018.0 1012.9
09 18.06 Ю 5-10
{10}
н/о н/о +20.9 +12.5 59 +23 +23 комфорт 1017.8 1012.7
10 18.06 Ю 5 н/о н/о +21.4 +12.1 55 +24 +24 комфорт 1017.6 1012.5
11 18.06 Ю 4 н/о н/о +23.0 +13.6 55 +26 +26 жарко 1017.2 1012.2
12 18.06 Ю 4 н/о н/о +24.2 +13.7 52 +26 +26 жарко 1016.8 1011.8
13 18.06 Ю 3 н/о н/о +24.7 +14.7 54 +27 +27 жарко 1016.3 1011.3
14 18.06 Ю 4 н/о н/о +25.0 +14.9 53 +28 +28 жарко 1015.5 1010.5
15 18.06 Ю 4
{9}
н/о н/о +24.3 +15.0 56 +27 +27 жарко 1015.1 1010.1
16 18.06 Ю 4 н/о н/о +23.6 +14.9 58 +26 +26 жарко 1014.7 1009.7
17 18.06 Ю 3 н/о н/о +22.5 +15.2 63 +26 +26 жарко 1014.7 1009.7
18 18.06 Ю 3
{9}
н/о н/о +21.8 +15.1 66 +25 +25 комфорт 1014.1 1009.1 +18.3 +25.2
19 18.06 Ю 3 н/о н/о +21.1 +14.8 67 +24 +24 комфорт 1014.1 1009.0
20 18.06 Ю 3 н/о н/о +18.1 +16.1 88 +18 +18 1014.4 1009.3
21 18.06 Ю 3 н/о н/о +18.2 +15.1 82 +19 +19 1014.3 1009.2
22 18.06 Ю 3 н/о н/о +18.5 +14.6 78 +19 +19 1013.9 1008.8
23 18.06 Ю 3 н/о н/о +18.1 +14.9 82 +19 +19 1013.6 1008.5
00 19.06 Ю 3 н/о н/о +17.2 +15.1 87 +17 +17 1013.4 1008.3
01 19.06 Ю 3 н/о н/о +17.2 +15.1 87 +17 +17 1013.0 1007.9
02 19.06 Ю 2 н/о н/о +17.7 +14.2 80 +18 +18 1012.6 1007.5
03 19.06 ЮВ 2 н/о н/о +16.5 +14.7 89 +17 +17 1012.4 1007.3
04 19.06 Ю 2 н/о н/о +16.9 +15.1 89 +17 +17 1012.4 1007.3
05 19.06 ЮВ 2 н/о н/о +16.7 +15.5 93 +17 +17 1012.2 1007.1
06 19.06 ЮВ 2 н/о н/о +17.9 +15.4 85 +19 +19 1012.0 1006.9 +16.4 +21.9
07 19.06 ЮВ 3 н/о н/о +18.9 +16.1 84 +20 +20 1011.6 1006.6
08 19.06 Ю 3 н/о н/о +21.1 +16.2 74 +24 +24 комфорт 1011.7 1006.6

 

Местоположение метеостанции Мыс Nakkehoved (Дания): широта 56.12 долгота 12.35 высота над уровнем моря 43 м.

В архиве по умолчанию представлена погода на Мысе Nakkehoved за последнюю неделю. Архивные данные за месяц целиком и за предыдущие месяцы, начиная с января 2011 года, Вы можете получить, выбрав интересующий диапазон дат из раскрывающегося списка и нажав кнопку "Ввод!".


*Определитесь, кто Вы:
робот инопланетянин человек

Внимание! Время в таблицах - всемирное. Для получения местного времени необходимо прибавить поправку, которая равна 1 ч.

Смотрите также архив погоды в соседних городах и на ближайших метеорологических станциях:

Погода в Сяелсмарке (Дания) (27 км)
Погода в Хельсингборге (Швеция) (28 км)
Погода в Ангелхольме (Швеция) (37 км)
Погода в Алландс Вадеро (Швеция) (39 км)
Погода в Копенгагене Jaegers (Дания) (42 км)
Погода в Ханнесторпе (Швеция) (46 км)
Погода в Копенгагене (Дания) (59 км)
Погода в Роскилле (Дания) (62 км)
Погода в Хольбеке (Дания) (64 км)
Погода в Гнибене (Дания) (67 км)

Пояснения к столбцам:

Ветер - указаны скорость ветра в м/с - средняя за 10 мин, порывы в срок и между сроками (в фигурных скобках) и направление, откуда дует ветер: С - северный, СВ - северо-восточный, В - восточный, ЮВ - юго-восточный, Ю - южный, ЮЗ - юго-западный, З - западный, СЗ - северо-западный.
Видимость - горизонтальная дальность видимости в метрах или километрах. При видимости от 1 до 10 км при отсутствии осадков обычно наблюдается дымка, при ухудшении видимости до 1 км и менее - туман. В сухую погоду видимость может ухудшаться дымом, пылью или мглою.
Явления - указаны атмосферные явления, наблюдавшиеся в срок или в последний час перед сроком; фигурными скобками обозначены явления, наблюдавшиеся между сроками (за 1-3 часа до срока); квадратными скобками обозначены град или гололедные отложения с указанием их диаметра в мм.
Облачность - указаны через наклонную черту общая и нижняя облачность в баллах и высота нижней границы облаков в метрах; квадратными скобками обозначены формы облаков: Ci - перистые, Cs - перисто-слоистые, Cc - перисто-кучевые, Ac - высококучевые, As - высокослоистые, Sc - слоисто-кучевые, Ns - слоисто-дождевые, Cu - кучевые, Cb - кучево-дождевые. Подробнее классификацию облаков см. в Атласе облаков (PDF).
T - Температура воздуха - температура, измеренная на высоте 2 м над землей.
Td - Температура точки росы - температура, при понижении до которой содержащийся в воздухе водяной пар достигнет насыщения.
f - Относительная влажность воздуха - влажноcть воздуха, измеренная на высоте 2 м над землей.
Te - Эффективная температура - температура, которую ощущает одетый по сезону человек в тени. Характеристика душности погоды. При расчете учитывается влияние влажности воздуха и скорости ветра на теплоощущения человека.
Tes - Эффективная температура на солнце - температура, которую ощущает человек, с поправкой на солнечный нагрев. Характеристика знойности погоды. Зависит от высоты солнца над горизонтом, облачности и скорости ветра. Ночью, в пасмурную погоду, а также при ветре 12 м/с и более поправка равна нулю.
P - Атмосферное давление - приведенное к уровню моря атмосферное давление.
Po - Атмосферное давление - измеренное на уровне метеостанции атмосферное давление.
Tmin - Минимальная температура - минимум температуры воздуха на высоте 2 м над землей.
Tmax - Максимальная температура - максимум температуры воздуха на высоте 2 м над землей.
R - Количество осадков - Количество выпавших осадков за период времени, мм. При наведении курсора мыши на число - период времени, за который выпало указанное количество осадков.
R24 - Количество осадков - Количество выпавших осадков за 24 часа, мм.
S - Снежный покров - Высота снежного покрова, см. При наведении курсора мыши на число - состояние снежного покрова и степень покрытия местности в баллах.